Location: ?????
(31.8092°N, 35.2590°E)
Time: 20:12:16
(UTC+00:00)

CZ-2D R/B - Pass Details

Date: 20 June 2021
Orbit: 791 x 845 km, 98.7° (Epoch: 02 August)

Event Time Altitude Azimuth Distance (km) Brightness Sun altitude
Rises 21:54:24 0° 36° (NE) 3,292 6.0 -34.7°
Reaches altitude 10° 21:57:47 10° 60° (ENE) 2,361 4.9 -34.6°
Enters shadow 21:59:04 13° 73° (ENE) 2,138 4.5 -34.6°
